Regional Weather Roundup
Issued by NWS

Home | Current Version | Previous Version | Text Only | Print | Product List | Glossary Off
Versions: 1 2 3 4 5 6 7 8 9 10 11 12 13 14 15 16 17 18 19 20 21 22 23 24 25 26 27 28 29 30 31 32 33 34 35 36 37 38 39 40 41 42 43 44 45 46 47 48 49 50

731
ASUS43 KIND 040309
RWRIN

WEATHER ROUNDUP FOR INDIANA
NATIONAL WEATHER SERVICE INDIANAPOLIS IN
1100 PM EDT TUE MAY 03 2016

NOTE: "FAIR" INDICATES FEW OR NO CLOUDS BELOW 12,000 FEET WITH NO
SIGNIFICANT WEATHER AND/OR OBSTRUCTIONS TO VISIBILITY.

* - STATION DOES NOT REPORT WEATHER SUCH AS PRECIPITATION OR FOG.

+ - STATION NOT QUALITY CONTROLLED BY THE NATIONAL WEATHER SERVICE.
    USE DATA WITH CAUTION...ESPECIALLY DEWPOINT AND RELATIVE
    HUMIDITY OBSERVATIONS.

INZ001>003-010>013-019-020-040400-
NORTHWEST INDIANA

CITY           SKY/WX    TMP DP  RH WIND       PRES   REMARKS
GARY /AIRPORT/ MOCLDY    61  46  59 SW3       29.77
KNOX *+        CLOUDY    55  34  44 SW7       29.77F
LA PORTE +     CLOUDY    58  44  59 SW7       29.77F
MICHIGAN CITY+ CLOUDY    55  43  62 S7        29.76F
MONTICELLO +   MOCLDY    55  42  61 SW6       29.80F
RENSSELAER +   CLOUDY    55  45  67 SW7       29.80F
VALPARAISO     CLOUDY    57  42  57 SW8       29.78F

$$

LMZ046-743>745-040400-
SOUTHERN LAKE MICHIGAN

STATION/POSITION TIME  TEMP    WIND        PRES    WAVE
                       AIR SEA DIR/SP/G            HT
                 (UTC) (F)     (DEG/KT/KT) (MB)    (FT)
BURNS HARBOR     0200   62     220/  9/ 12 1008.8S
MICHIGAN CITY    0200   61     180/  9/  9   N/A

$$

INZ004-005-014>016-021>024-040400-
NORTH CENTRAL INDIANA

CITY           SKY/WX    TMP DP  RH WIND       PRES   REMARKS
GOSHEN         CLOUDY    56  42  59 S8        29.78F
LOGANSPORT +   CLOUDY    52  46  82 S7        29.82S
PERU/GRISSOM   MOCLDY    52  46  82 S9        29.80F
ROCHESTER +    CLOUDY    59  46  63 S5        29.80F
SOUTH BEND     CLOUDY    57  41  55 SW8       29.77F
WARSAW +       CLOUDY    55  41  58 S3        29.79F

$$

INZ006>009-017-018-025>027-040400-
NORTHEAST INDIANA

CITY           SKY/WX    TMP DP  RH WIND       PRES   REMARKS
ANGOLA *+      CLOUDY    54  45  71 SW7       29.78F
AUBURN +       PTCLDY    52  41  66 S5        29.80F
FORT WAYNE     MOCLDY    51  44  77 SW9       29.81F
HUNTINGTON +   CLOUDY    52  43  71 SW3       29.81F

$$

INZ028-029-035-036-043>045-051>053-040400-
WEST CENTRAL INDIANA

CITY           SKY/WX    TMP DP  RH WIND       PRES   REMARKS
CRAWFORDSVL +  CLOUDY    51  46  81 SW6       29.84F
GREENCASTLE +  CLOUDY    54  45  71 CALM      29.86S
LAFAYETTE      CLOUDY    53  43  68 W3        29.82F
TERRE HAUTE    CLOUDY    54  45  71 SW7       29.86F

$$

INZ030>032-037>040-046>048-054>057-064-065-040400-
CENTRAL INDIANA

CITY           SKY/WX    TMP DP  RH WIND       PRES   REMARKS
CP ATTERBURY + PTCLDY    46  45  93 SW5       29.88S
FRANKFORT +      N/A     55  40  58 CALM      29.85S
GREENWOOD *+   MOCLDY    54  46  76 S5        29.86F
INDIANAPOLIS   CLOUDY    53  42  66 S8        29.84F
-EAGLE CREEK   CLOUDY    53  44  71 S5        29.84F
KOKOMO *+      MOCLDY    52  45  76 S9        29.82S
MARION +       CLEAR     52  45  77 S7        29.83F
SHELBYVILLE    PTCLDY    55  47  74 S7        29.85F
ZIONSVILLE +   CLOUDY    51  45  78 S6        29.85F

$$

INZ033-034-041-042-049-050-058-059-040400-
EAST CENTRAL INDIANA

CITY           SKY/WX    TMP DP  RH WIND       PRES   REMARKS
MUNCIE         PTCLDY    52  43  71 S5        29.84F

$$

INZ060-061-067>069-081>083-085>088-040400-
SOUTHWEST INDIANA

CITY           SKY/WX    TMP DP  RH WIND       PRES   REMARKS
EVANSVILLE     PTCLDY    55  43  63 W5        29.92S
HUNTINGBURG *+ MOCLDY    54  45  71 W8        29.91S
WASHINGTON +   CLOUDY    57  46  66 W8        29.88F

$$

INZ062-063-066-070>080-084-089>092-040400-
SOUTH CENTRAL AND SOUTHEAST INDIANA

CITY           SKY/WX    TMP DP  RH WIND       PRES   REMARKS
BLOOMINGTON    CLOUDY    53  46  77 CALM      29.87F
MADISON *+     CLEAR     50  46  87 CALM      29.90F
NORTH VERNON + CLEAR    N/A N/A N/A CALM      29.89F

$$





USA.gov is the U.S. government's official web portal to all federal, state and local government web resources and services.